Regional Weather Roundup
Issued by NWS

Home | Current Version | Previous Version | Graphics & Text | Print | Product List | Glossary On
Versions: 1 2 3 4 5 6 7 8 9 10 11 12 13 14 15 16 17 18 19 20 21 22 23 24 25 26 27 28 29 30 31 32 33 34 35 36 37 38 39 40 41 42 43 44 45 46 47 48 49 50
000
ASUS43 KDMX 240507
RWRIA

WEATHER ROUNDUP FOR IOWA
NATIONAL WEATHER SERVICE DES MOINES IA
1100 PM CST SUN NOV 23 2014

NOTE: "FAIR" INDICATES FEW OR NO CLOUDS BELOW 12,000 FEET WITH NO
SIGNIFICANT WEATHER AND/OR OBSTRUCTIONS TO VISIBILITY.

* - THESE STATIONS ARE NOT NWS STATIONS...THUS NOT UNDER NWS
QUALITY CONTROL.  THEY ALSO DO NOT REPORT WEATHER SUCH
AS PRECIPITATION OR FOG.

IAZ001>003-012>014-020>022-031>034-043>046-240600-
   NORTHWEST IOWA

CITY           SKY/WX    TMP DP  RH WIND       PRES   REMARKS
CARROLL *      CLOUDY    34  27  75 NW25G32   29.45S WCI  21
CHEROKEE *     CLOUDY    30  25  80 NW17G25   29.49S WCI  18
DENISON *      CLOUDY    32  25  74 NW20G31   29.47F WCI  20
LE MARS *      CLOUDY    28  21  74 NW21G31   29.53F WCI  15
ORANGE CITY *  CLOUDY    28  21  74 NW22G31   29.50S WCI  15
SHELDON *      CLOUDY    28  23  80 NW24      29.48S WCI  14
SIOUX CITY     CLOUDY    31  20  63 NW28G37   29.53F WCI  17
SPENCER        CLOUDY    30  23  75 NW20G33   29.45F WCI  17
STORM LAKE *   CLOUDY    30  25  80 NW21G28   29.46S WCI  17
$$

IAZ055>058-069>071-079>083-090>094-240600-
   SOUTHWEST IOWA

CITY           SKY/WX    TMP DP  RH WIND       PRES   REMARKS
ATLANTIC *     MOCLDY    34  25  69 NW18G28   29.48R WCI  23
AUDUBON *      CLOUDY    34  25  69 NW22G28   29.47R WCI  22
CLARINDA *     CLOUDY    39  32  75 NW22G33   29.48F WCI  29
COUNCIL BLFS * CLOUDY    34  25  69 NW20G33   29.50F WCI  22
CRESTON *      MOCLDY    37  30  75 NW28G35   29.42F WCI  25
HARLAN  *      CLOUDY    34  27  75 NW28G37   29.52S WCI  20
LAMONI         CLOUDY    37  33  85 NW18G25   29.40F WCI  27
RED OAK *      CLOUDY    37  28  70 NW21G36   29.49S WCI  27
SHENANDOAH *   CLOUDY    39  28  65 NW24G38   29.51S WCI  28
$$

IAZ047>049-059>061-072>074-084-240600-
   CENTRAL IOWA

CITY           SKY/WX    TMP DP  RH WIND       PRES   REMARKS
AMES           CLOUDY    36  30  79 NW16G25   29.38S WCI  26
ANKENY *       MIX PCPN  34  32  93 NW20G31   29.39R WCI  22
CHARITON *     LGT RAIN  36  32  87 NW23G35   29.38R WCI  24
DES MOINES     FLURRIES  36  31  82 N17       29.39S WCI  26
GRINNELL*      DRIZZLE   34  34 100 NW22G32   29.32S WCI  22
KNOXVILLE *    MIX PCPN  37  32  81 NW22G29   29.34F WCI  27
MARSHALLTOWN   LGT SNOW  33  32  96 NW26G35   29.33F FOG     WCI  20
PELLA *        DRIZZLE   36  35  96 NW18G28   29.35F WCI  25
PERRY *        MOCLDY    36  30  80 NW20G26   29.42S WCI  25
$$

IAZ004>006-015-016-023>025-035-036-240600-
   NORTH CENTRAL IOWA

CITY           SKY/WX    TMP DP  RH WIND       PRES   REMARKS
ALGONA *       CLOUDY    32  28  86 NW23G31   29.40S WCI  19
CLARION *      MIX PCPN  34  32  93 NW23G29   29.37F WCI  22
ESTHERVILLE    CLOUDY    30  25  81 NW28G35   29.43S WCI  15
FORT DODGE *   CLOUDY    34  25  69 NW14G24   29.41F WCI  24
MASON CITY     LGT SNOW  33  30  88 NW23G33   29.35F FOG     WCI  21
FOREST CITY *  CLOUDY    32  30  93 NW20G28   29.36S WCI  20
IOWA FALLS *   SNOW      32  32 100 NW24G31   29.35S VSB 1/2 WCI  19
$$

IAZ007>011-017>019-026>030-037>042-050>054-066-240600-
   NORTHEAST IOWA

CITY           SKY/WX    TMP DP  RH WIND       PRES   REMARKS
CEDAR RAPIDS   LGT RAIN  40  40 100 NW25G32   29.24R FOG     WCI  29
CHARLES CITY * MIX PCPN  36  34  93 NW22G36   29.29S WCI  24
CLINTON *      CLOUDY    46  45  93 W5        29.17F VSB 1/4
DECORAH *      CLOUDY    39  37  93 NW17      29.22F WCI  30
DUBUQUE        FOG       45  45 100 NW5       29.15F VSB 1/4
MONTICELLO *   CLOUDY    43  43 100 NW15      29.18F
OELWEIN *      CLOUDY    39  37  93 NW23G32   29.24F WCI  29
WATERLOO       LGT RAIN  37  35  92 NW15G29   29.28S WCI  28
$$

IAZ064-065-067-068-078-240600-
   EAST CENTRAL IOWA

CITY           SKY/WX    TMP DP  RH WIND       PRES   REMARKS
DAVENPORT      FOG       48  47  96 W10       29.16F VSB 1/2
IOWA CITY      CLOUDY    42  42 100 NW22G30   29.24F FOG
MT. PLEASANT * DRIZZLE   41  41 100 NW16G28   29.24S
MUSCATINE *    DRIZZLE   45  43  93 NW20G31   29.20F
QUAD CITIES    LGT RAIN  50  48  93 W9        29.15F FOG
$$

IAZ062-063-075>077-085>089-095>099-240600-
   SOUTHEAST IOWA

CITY           SKY/WX    TMP DP  RH WIND       PRES   REMARKS
BURLINGTON     CLOUDY    44  44 100 NW17G29   29.20S FOG
FAIRFIELD *    LGT RAIN  41  37  87 NW25G35   29.27S
FORT MADISON * CLOUDY    45  45 100 NW20G29   29.23S FOG
KEOKUK *       CLOUDY    45  43  93 NW15G30   29.23S
OSKALOOSA *    LGT RAIN  37  36  93 NW28      29.31S WCI  25
CENTERVILLE *  RAIN      37  37 100 NW20G29   29.36S WCI  27
OTTUMWA        LGT RAIN  38  35  89 NW24G32   29.31S WCI  27
WASHINGTON *   CLOUDY    41  41 100 NW25G37   29.24S
$$

ABBREVIATIONS USED IN REMARKS
   TC - TEMPERATURES IN CELSIUS
  WCI - WIND CHILL INDEX
   HX - HEAT INDEX
  VSB - VISIBILITY
$$




USA.gov is the U.S. government's official web portal to all federal, state and local government web resources and services.